Weather in Oktyabrskiy

Russia / Irkutsk Oblast     56°04′34″N   99°25′26″E
temp.,
°C
wind,
m/s
gust,
m/s
humid.,
%
clouds,
%
prec.,
mm/h
press.,
hPa
HPBL,
m
29 june, wed
wed2923:00+15wsw2270100 0.0 100835
02:00+13w227983 0.0 100922
05:00+11wnw1189100 0.0 101011
08:00+17ssw1166100 0.0 1011296
11:00+22wsw124274 0.0 10101352
14:00+26s1236100 0.0 10082073
17:00+25s2237100 0.0 10062028
20:00+22se235169 0.0 1006122
30 june, thu
thu3023:00+16sse226786 0.0 100621
02:00+14ese11830 0.0 100512
05:00+12ese22910 0.0 100521
08:00+19se49680 0.0 1004571
11:00+25se46450 0.0 10021211
14:00+29se44310 0.0 10011623
17:00+31se22260 0.0 9992077
20:00+28e23435 0.0 100074
1 july, fri
fri123:00+19ese22715 0.0 100124
02:00+16e1182100 0.0 100112
05:00+15e119019 0.0 100111
08:00+20ssw126887 0.0 1002347
11:00+24w335388 0.0 10021102
14:00+26wnw3349100 0.0 10011500
17:00+20wnw477489 0.1 1002548
20:00+19nw357939 0.1 1002544
2 july, sat
sat223:00+15nnw11982 0.0 100223
02:00+14nnw2498100 0.0 100289
05:00+14wsw1399100 1.0 1003102
08:00+15w2599100 2.3 1004224
11:00+16wnw3796100 0.8 1005556
14:00+13wnw41197100 2.9 1007598
17:00+14wnw2587100 0.1 1008452
20:00+16nw1373100 0.1 1008423
3 july, sun
sun323:00+12sse1191100 0.0 100810
02:00+11sse2189100 0.0 100917
05:00+10s1190100 0.0 100910
08:00+16sw116745 0.0 1009299
11:00+21wnw12495 0.0 1008888
14:00+25nw1233100 0.0 10062741
17:00+22n2142100 0.0 10051276
20:00+18n2358100 0.0 100555